Tracking 29892 objects as of 21-Nov-2024
HD Live streaming from Space Station
objects crossing your sky now

FENGYUN 1C DEB

Track FENGYUN 1C DEB now!
10-day predictions


NORAD ID: 31731
Int'l Code: 1999-025CEE
Perigee: 776.1 km
Apogee: 792.8 km
Inclination: 99.3 °
Period: 100.4 minutes
Semi major axis: 7155 km
RCS: 0.0064 m2 (small)
Launch date: May 10, 1999
Source: People's Republic of China (PRC)
Launch site: Taiyaun Space Center, China (TSC)

Note: This is SATELLITE DEBRIS
Your satellite tracking list
Your tracking list is empty




NASA's NSSDC Master Catalog

Two Line Element Set (TLE):
1 31731U 99025CEE 24325.48903187  .00010534  00000-0  37584-2 0  9998
2 31731  99.3291 335.4544 0011677 138.6338 221.5731 14.34320307903417
Source of the keplerian elements: AFSPC